Regional Weather Roundup
Issued by NWS

Home | Current Version | Previous Version | Graphics & Text | Print | Product List | Glossary On
Versions: 1 2 3 4 5 6 7 8 9 10 11 12 13 14 15 16 17 18 19 20 21 22 23 24 25 26 27
000
ASUS45 KBOU 191807
RWRCO

WEATHER ROUNDUP FOR COLORADO
NATIONAL WEATHER SERVICE DENVER/BOULDER CO
1200 PM MDT WED JUL 19 2017

NOTE: "FAIR" INDICATES FEW OR NO CLOUDS BELOW 12000 FEET WITH NO
SIGNIFICANT WEATHER AND/OR OBSTRUCTIONS TO VISIBILITY.

COZ001>005-013-030-031-191900-
...NORTHWEST COLORADO...

CITY           SKY/WX    TMP DP  RH WIND       PRES   REMARKS
CRAIG          FAIR      90  44  20 W13G18    30.26F
HAYDEN         FAIR      82  46  28 CALM      30.30F
MEEKER         FAIR      86  48  26 VRB6      30.28F
RABBIT EARS PA FAIR      68  46  45 NW6       30.65S
STEAMBOAT SPGS FAIR      82  47  29 SW5       30.32F
WALDEN         FAIR      79  41  25 CALM      30.43F
$$

COZ006>008-011-191900-
...WEST CENTRAL VALLEYS...

CITY           SKY/WX    TMP DP  RH WIND       PRES   REMARKS
GRAND JUNCTION FAIR      88  50  27 S6        30.16F
MONTROSE       FAIR      86  50  28 CALM      30.26F
EAGLE          SUNNY     82  48  30 VRB5      30.32F
RIFLE          FAIR      87  48  25 NW7       30.22F
DELTA          FAIR      90  46  21 S5        30.22F
NUCLA          NOT AVBL
$$

COZ017>023-064>068-191900-
...SOUTHWEST COLORADO...

CITY           SKY/WX    TMP DP  RH WIND       PRES   REMARKS
DURANGO        FAIR      82  48  30 E9        30.36F
CORTEZ         FAIR      88  53  30 S9        30.28F
PAGOSA SPRINGS FAIR      78  40  26 SW6       30.45F
TELLURIDE      FAIR      75  45  33 CALM      30.55S
WOLF CREEK PAS NOT AVBL
$$

COZ009-010-012-014-032>034-037-058>063-191900-
...CENTRAL COLORADO...

CITY           SKY/WX    TMP DP  RH WIND       PRES   REMARKS
ASPEN          FAIR      81  45  28 VRB3      30.40F
BUENA VISTA    FAIR      78  47  33 CALM      30.41F
COPPER MTN     FAIR      64  37  36 NW8       30.77S
BERTHOUD PASS  FAIR      57  43  58 NW5       30.82S
COTTONWOOD PAS FAIR      75  45  33 E3        30.58F
GUNNISON       FAIR      73  50  44 VRB3      30.43F
KREMMLING      FAIR      86  43  22 W6        30.38F
LEADVILLE      FAIR      71  39  31 CALM      30.53F
MONARCH PASS   FAIR      61  45  55 W14       30.87S
SALIDA         FAIR      85  44  24 SW12      30.44F
SUNLIGHT       FAIR      68  43  40 W5        30.70S
WILKERSON PASS FAIR      64  45  48 SW3       30.72F
$$

COZ069>075-191900-
...SAN LUIS VALLEY/SANGRE DE CRISTO MOUNTAINS...

CITY           SKY/WX    TMP DP  RH WIND       PRES   REMARKS
ALAMOSA        FAIR      76  51  41 VRB3      30.43F
DEL NORTE      FAIR      74  52  47 SE6       30.46F
LA VETA PASS   NOT AVBL
SAGUACHE         N/A    N/A N/A N/A MISG        N/A
$$

COZ035-036-038>040-191900-
...NORTHERN COLORADO FRONT RANGE...

CITY           SKY/WX    TMP DP  RH WIND       PRES   REMARKS
DENVER INTL AP FAIR      95  47  19 CALM      30.15F
DMNS CITY PARK   N/A     92  47  21 N3G13     30.14F
AURORA         MOSUNNY   91  47  21 NW6       30.18F
FRONT RANGE AP FAIR      95  46  18 N6        30.17F
ERIE MUNI ARPT FAIR      91  47  21 N3        30.13F
BOULDER MUN AP FAIR      90  50  25 CALM      30.15S
CENTENNIAL     FAIR      92  44  19 N9        30.19F
BROOMFIELD     FAIR      90  46  22 NE5       30.19S
FORT COLLINS   FAIR      90  57  32 CALM      30.13F
LONGMONT       FAIR      93  50  22 NE5       30.14F
$$

COZ041-046-047-076>085-087-088-191900-
...PIKES PEAK/PALMER DIVIDE AND SOUTHERN FOOTHILLS...

CITY           SKY/WX    TMP DP  RH WIND       PRES   REMARKS
COLO. SPRINGS  FAIR      86  57  37 VRB6      30.25F
A. F. ACADEMY  NOT AVBL
SCHRIEVER AFB  FAIR      87  48  26 SW13G21   30.26F
CHEYENNE MTN   NOT AVBL
ELLICOTT       FAIR     N/A N/A N/A S10       30.25S
FALCON           N/A     82  51  34 S12G22    30.33S
FORT CARSON    NOT AVBL
LIMON          FAIR      90  55  30 S13G24    30.18F
MONUMENT HILL  FAIR      82  50  32 S9        30.32F
CANON CITY     SUNNY     93  54  26 W8        30.18F
WALSENBURG     FAIR      93  41  16 SW13G20   30.25F
TRINIDAD       FAIR      92  43  18 S13G23    30.25F
$$

COZ042>045-048>051-090-091-191900-
...NORTHEAST COLORADO...

CITY           SKY/WX    TMP DP  RH WIND       PRES   REMARKS
GREELEY ARPT   NOT AVBL
AKRON          FAIR      96  50  20 S9G17     30.11F
BURLINGTON     FAIR      94  59  31 S18       30.13F
WRAY           NOT AVBL
YUMA           NOT AVBL
STERLING       FAIR      95  61  31 CALM      30.04F
HOLYOKE        FAIR      95  72  46 S8        30.06F
FORT MORGAN    FAIR      94  51  23 SW3       30.09F
$$

COZ086-089-092>099-191900-
...SOUTHEAST COLORADO...

CITY           SKY/WX    TMP DP  RH WIND       PRES   REMARKS
PUEBLO         FAIR      93  51  23 SW6       30.13F
LA JUNTA       FAIR      95  59  30 SE9       30.13F
LAMAR          FAIR      97  57  26 S16G23    30.08F
SPRINGFIELD      N/A     91  52  26 S16G23    30.17F
$$




USA.gov is the U.S. government's official web portal to all federal, state and local government web resources and services.